DESCENT (46927 NORAD) Tracking and Keplerian Element Data
This shows tracking and keplerian element data for the satellite.
Feedback or suggestion? Click here.
Element | Value |
Catalog | 46927 |
Name | DESCENT |
Epoch Orbit | 1093 |
Epoch Day | 14.85514605 |
Epoch Year | 2021 |
RAAN | 20.3494 |
Inclination | 51.6435 |
Eccentricity | 0.0001282 |
Argument of Perigee | 275.7607 |
Mean Anonmoly | 84.3236 |
Mean Motion | 15.5134726 |
Decay Rate | 5.336E-05 |
L1 | 1 46927U 98067RX 21014.85514605 .00005336 00000-0 96776-4 0 9996 |
L2 | 2 46927 51.6435 20.3494 0001282 275.7607 84.3236 15.51347260 10936 |
Live tracking and technical data element details for DESCENT (NORAD 46927). DESCENT can be tracked NOW for your location showing map with azimuth and elevation plus other details from your city location.
Track the satellite on the map from your city or location and see movement details for azimuth, elevation, latitude, longitude, range, height, and movement on the map or in text.
IsCatalogInMostPopularTable: catalog: 46927, numindb: 19
Update: records affected: 1
GetName: 46927 DESCENT
Hit Count: updated at: Fri, 15 Jan 2021 23:33:01 GMT